Regional Weather Roundup
Issued by NWS

Home | Current Version | Previous Version | Text Only | Print | Product List | Glossary Off
Versions: 1 2 3 4 5 6 7 8 9 10 11 12 13 14 15 16 17 18 19 20 21 22 23 24 25 26 27 28 29 30 31 32 33 34 35 36 37 38 39 40 41 42 43 44 45 46 47 48 49 50

000
ASUS43 KDTX 261710
RWRMI
MICHIGAN HOURLY REGIONAL WEATHER ROUNDUP
NATIONAL WEATHER SERVICE DETROIT/PONTIAC MI
100 PM EDT THU MAY 26 2016

NOTE: "FAIR" INDICATES FEW OR NO CLOUDS BELOW 12,000 FEET WITH NO
SIGNIFICANT WEATHER AND/OR OBSTRUCTION TO VISIBILITY.

MIZ047>049-052>055-059>063-066>070-074>076-081>083-261800-
SOUTHEAST LOWER MICHIGAN

CITY           SKY/WX    TMP DP  RH WIND       PRES   REMARKS
ADRIAN         CLOUDY    80  63  55 SW9G18    30.00R
ALMA           CLOUDY    77  70  77 S12       29.93F
ANN ARBOR      MOSUNNY   80  66  62 SW12      29.98R
BAD AXE        CLOUDY    79  66  63 SW14      29.94S
CARO           MOSUNNY   82  68  62 SW12G17   29.93S
DETROIT CITY   SUNNY     81  64  56 S15       29.96F
DETROIT        PTSUNNY   82  65  56 SW14G21   29.98S
FLINT          PTSUNNY   84  66  54 W9        29.95S
GROSSE ILE     MOSUNNY   75  66  73 S13       29.97S
HILLSDALE      PTSUNNY   79  58  47 SW12      30.00S
HOWELL         MOSUNNY   80  65  59 S9G16     29.97S

CITY           SKY/WX    TMP DP  RH WIND       PRES   REMARKS
JACKSON        PTSUNNY   80  63  55 W9        29.98R
LAMBERTVILLE   MOSUNNY   82  64  55 SW10G16   29.99R
LANSING        MOSUNNY   77  67  71 SW14      29.96F
LAPEER         PTSUNNY   82  62  50 SW12G17   29.95S
MASON          PTSUNNY   78  64  61 W7        29.97S
MONROE         MOSUNNY   82  67  60 S14       29.98R
MT. CLEMENS    PTSUNNY   80  67  63 S16       29.94F
PONTIAC        CLOUDY    82  64  54 SW12      29.95F
PORT HOPE        N/A     79  65  62 MISG      29.91F
PORT HURON     MOSUNNY   81  66  61 SW9       29.96S
TRI CITIES     CLOUDY    78  66  66 SW14      29.94S
MIDLAND        PTSUNNY   77  67  71 SW8       29.92S
TROY           MOSUNNY   83  63  51 S12       29.98S
SAGINAW HB     PTSUNNY   79  64  61 SW14G21   29.93S
$$
MIZ043>046-050>051-056>058-064>065-071>073-077>080-261800-
SOUTHWEST LOWER MICHIGAN

CITY           SKY/WX    TMP DP  RH WIND       PRES   REMARKS
BATTLE CREEK   MOSUNNY   77  67  71 S12       29.97F
BENTON HARBOR  CLOUDY    79  68  69 S9        29.93F
BIG RAPIDS     PTSUNNY   75  70  84 S10       29.89F
COLDWATER      PTSUNNY   80  64  59 SW12G18   29.98S
FREMONT        CLOUDY    75  70  83 S9        29.88F
HOLLAND        PTSUNNY   77  67  71 SW16      29.93F
GRAND RAPIDS   MOSUNNY   81  69  67 S10       29.92F
IONIA          PTSUNNY   77  66  70 S10       29.93F
KALAMAZOO      CLOUDY    79  67  66 S12       29.96F
LUDINGTON      CLOUDY    74  66  77 S10       29.86F
MARSHALL       MOSUNNY   79  66  63 SW10      29.97F
MOUNT PLEASANT PTSUNNY   77  68  74 SW7       29.92S
MUSKEGON       PTSUNNY   76  66  71 S15G23    29.91F
SOUTH HAVEN    CLOUDY    79  67  65 SW10      29.93F
$$
MIZ016>042-261800-
NORTHERN LOWER MICHIGAN

CITY           SKY/WX    TMP DP  RH WIND       PRES   REMARKS
ALPENA         PTSUNNY   77  63  61 S12       29.88F
BEAVER ISLAND  CLOUDY    65  60  83 S6        29.86S
BELLAIRE       CLOUDY    78  64  60 SW6       29.85F
CADILLAC       MOSUNNY   76  66  72 S10       29.89F
CHARLEVOIX     CLOUDY    73  65  77 S9G16     29.89S
FRANKFORT      CLOUDY    67  64  90 S7        29.85F FOG
GAYLORD        PTSUNNY   76  64  66 SW12      29.89F
GRAYLING       MOSUNNY   78  65  64 SW8       29.90S
HARBOR SPRINGS CLOUDY    73  65  75 SW9       29.86F
HOUGHTON LAKE  MOSUNNY   73  64  73 SW10      29.92F
MANISTEE       CLOUDY    73  64  73 S7        29.85F
OSCODA         MOSUNNY   79  64  58 SW10      29.90F
PELLSTON       CLOUDY    73  64  73 SW9       29.86F
ROGERS CITY    PTSUNNY   77  63  61 S7        29.87F
TRAVERSE CITY  PTSUNNY   80  65  59 S9        29.84F
$$
MIZ007>008-015-261800-
EASTERN UPPER MICHIGAN

CITY           SKY/WX    TMP DP  RH WIND       PRES   REMARKS
KINROSS          N/A     63  61  94 S7        29.86F
MACKINAC ISLAN CLOUDY    58  52  80 CALM      29.86F
NEWBERRY       CLOUDY    60  59  97 S5        29.83F FOG
S. S. MARIE    CLOUDY    64  57  78 SE9       29.85F
MUNISING         N/A     69  60  73 VRB3      29.78F
$$
MIZ004>006-011>014-085-261800-
CENTRAL UPPER MICHIGAN

CITY           SKY/WX    TMP DP  RH WIND       PRES   REMARKS
MANISTIQUE     FOG       54  53  97 S5        29.83R VSB<1/4
ESCANABA       CLOUDY    64  59  82 SW13      29.82R
MENOMINEE      FOG       61  60  97 MISG        N/A  VSB 1/2
SAWYER-GWINN   MOSUNNY   66  59  77 S5        29.81F
$$
MIZ001>003-009>011-084-261800-
WESTERN UPPER MICHIGAN

CITY           SKY/WX    TMP DP  RH WIND       PRES   REMARKS
IRON MOUNTAIN  LGT RAIN  66  63  90 S7        29.80S FOG
HOUGHTON       CLOUDY    63  57  81 CALM      29.79S
COPPER HARBOR    N/A     48  46  93 N9        29.79R
IRONWOOD       CLOUDY    57  57 100 E5        29.79F
$$

ABBREVIATIONS USED IN REMARKS
   TC - TEMPERATURE IN CELSIUS
  WCI - WIND CHILL INDEX
   HX - HEAT INDEX
  VSB - VISIBILITY





USA.gov is the U.S. government's official web portal to all federal, state and local government web resources and services.